Location: Dattensoll
(49.9928°N, 9.8954°E)
Time: 23:39:16
(UTC+00:00)

SL-14 R/B - Pass Details

Date: 19 May 2025
Orbit: 501 x 530 km, 82.4° (Epoch: 15 June)

Event Time Altitude Azimuth Distance (km) Brightness Sun altitude
Exits shadow 23:54:05 50° 146° (SE) 664 3.4 -19.5°
Maximum altitude 23:54:48 62° 97° (E) 589 3.4 -19.5°
Drops below altitude 10° 23:58:38 10° 16° (NNE) 1,771 7.1 -19.4°
Sets 00:00:49 0° 13° (NNE) 2,669 8.5 -19.3°
